Weather History for KGMJ - July, 2013

Change the Weather History Date:

Tuesday, July 23, 2013

  Actual Average (KJLN) Record (KJLN)
Temperature  
Mean Temperature 86 °F 81 °F  
Max Temperature 96 °F 91 °F 105 °F (2011)
Min Temperature 73 °F 70 °F 57 °F (1970)
Degree Days  
Heating Degree Days 0 0  
Month to date heating degree days 0  
Since 1 June heating degree days 5  
Since 1 July heating degree days 0  
Cooling Degree Days 20 16  
Month to date cooling degree days 347  
Year to date cooling degree days 845  
Since 1 June cooling degree days 665  
Growing Degree Days 36 (Base 50)    
Moisture  
Dew Point 75 °F    
Average Humidity 73    
Maximum Humidity 100    
Minimum Humidity 44    
Precipitation  
Precipitation 0.00 in 0.11 in 3.61 in (1956)
Month to date precipitation 2.98  
Year to date precipitation 26.79  
Sea Level Pressure  
Sea Level Pressure 29.87 in    
Wind  
Wind Speed 4 mph (SW)    
Max Wind Speed 22 mph    
Max Gust Speed 33 mph    
Visibility 10 miles    
Events Rain , Thunderstorm    
T = Trace of Precipitation, MM = Missing Value Source: NWS Daily Summary

Daily Weather History Graph

Daily Weather History Graph

Search for Another Location

Airport or City:

Trip Planner

Search our weather history database for the weather conditions in past years. The results will help you decide how hot, cold, wet, or windy it might be!

Date:

Astronomy

Jul. 23, 2013 Rise Set
Actual Time 6:18 AM CDT 8:32 PM CDT
Civil Twilight 5:48 AM CDT 9:01 PM CDT
Nautical Twilight 5:13 AM CDT 9:37 PM CDT
Astronomical Twilight 4:34 AM CDT 10:15 PM CDT
Moon 9:05 PM CDT (7/23) 7:24 AM CDT (7/23)
Length of Visible Light 15h 12m
Length of Day
14h 14m
Full, 99% of the Moon is Illuminated
Jul 23
Full
Jul 29
Last Quarter
Aug 6
New
Aug 14
First Quarter
Aug 20
Full

Hourly Weather History & Observations

Time (CDT) Temp. Heat Index Dew Point Humidity Pressure Visibility Wind Dir Wind Speed Gust Speed Precip Events Conditions
12:15 AM 78.8 °F - 71.6 °F 78% 29.89 in 10.0 mi SSE 3.5 mph - N/A   Clear
12:35 AM 78.8 °F - 71.6 °F 78% 29.89 in 10.0 mi SSE 3.5 mph - N/A   Clear
12:55 AM 78.8 °F - 71.6 °F 78% 29.89 in 10.0 mi Calm Calm - N/A   Clear
1:15 AM 77.0 °F - 71.6 °F 83% 29.88 in 10.0 mi SSE 3.5 mph - N/A   Clear
1:35 AM 78.8 °F - 71.6 °F 78% 29.88 in 10.0 mi South 4.6 mph - N/A   Clear
1:55 AM 80.6 °F 84.6 °F 71.6 °F 74% 29.89 in 10.0 mi South 5.8 mph - N/A   Clear
2:15 AM 80.6 °F 84.6 °F 71.6 °F 74% 29.89 in 10.0 mi South 3.5 mph - N/A   Clear
2:35 AM 78.8 °F - 71.6 °F 78% 29.89 in 10.0 mi South 3.5 mph - N/A   Clear
2:55 AM 78.8 °F - 71.6 °F 78% 29.89 in 10.0 mi South 3.5 mph - N/A   Scattered Clouds
3:15 AM 78.8 °F - 71.6 °F 78% 29.89 in 10.0 mi South 4.6 mph - N/A   Scattered Clouds
3:35 AM 78.8 °F - 71.6 °F 78% 29.89 in 10.0 mi South 4.6 mph - N/A   Clear
3:55 AM 75.2 °F - 73.4 °F 94% 29.88 in 7.0 mi Calm Calm - N/A   Clear
4:15 AM 75.2 °F - 75.2 °F 100% 29.88 in 10.0 mi Calm Calm - N/A   Clear
4:35 AM 77.0 °F - 77.0 °F 100% 29.88 in 10.0 mi Calm Calm - N/A   Clear
4:55 AM 75.2 °F - 75.2 °F 100% 29.89 in 10.0 mi Calm Calm - N/A   Clear
5:15 AM 77.0 °F - 77.0 °F 100% 29.89 in 10.0 mi Calm Calm - N/A   Clear
5:35 AM 77.0 °F - 77.0 °F 100% 29.89 in 10.0 mi Calm Calm - N/A   Clear
5:55 AM 75.2 °F - 75.2 °F 100% 29.90 in 10.0 mi Calm Calm - N/A   Clear
6:15 AM 75.2 °F - 75.2 °F 100% 29.90 in 10.0 mi Calm Calm - N/A   Clear
6:35 AM 75.2 °F - 75.2 °F 100% 29.89 in 10.0 mi South 3.5 mph - N/A   Clear
6:55 AM 77.0 °F - 77.0 °F 100% 29.90 in 10.0 mi Calm Calm - N/A   Clear
7:15 AM 78.8 °F - 77.0 °F 94% 29.90 in 10.0 mi Calm Calm - N/A   Clear
7:35 AM 78.8 °F - 77.0 °F 94% 29.90 in 10.0 mi Calm Calm - N/A   Clear
7:55 AM 80.6 °F 85.4 °F 73.4 °F 79% 29.90 in 10.0 mi SSW 4.6 mph - N/A   Clear
8:15 AM 82.4 °F 87.2 °F 71.6 °F 70% 29.91 in 10.0 mi SW 5.8 mph - N/A   Clear
8:35 AM 86.0 °F 91.8 °F 71.6 °F 62% 29.91 in 10.0 mi SW 6.9 mph - N/A   Clear
8:55 AM 86.0 °F 91.8 °F 71.6 °F 62% 29.91 in 10.0 mi SW 11.5 mph 16.1 mph N/A   Clear
9:15 AM 87.8 °F 93.8 °F 71.6 °F 58% 29.92 in 10.0 mi SW 11.5 mph - N/A   Clear
9:35 AM 87.8 °F 93.8 °F 71.6 °F 58% 29.93 in 10.0 mi SW 10.4 mph 17.3 mph N/A   Clear
9:55 AM 89.6 °F 96.2 °F 71.6 °F 55% 29.92 in 10.0 mi SW 10.4 mph 16.1 mph N/A   Clear
10:15 AM 89.6 °F 96.2 °F 71.6 °F 55% 29.92 in 10.0 mi SW 9.2 mph 17.3 mph N/A   Clear
10:35 AM 89.6 °F 96.2 °F 71.6 °F 55% 29.92 in 10.0 mi SW 10.4 mph 16.1 mph N/A   Clear
10:55 AM 89.6 °F 96.2 °F 71.6 °F 55% 29.92 in 10.0 mi SW 12.7 mph 17.3 mph N/A   Clear
11:15 AM 89.6 °F 96.2 °F 71.6 °F 55% 29.92 in 10.0 mi West 9.2 mph - N/A   Clear
11:35 AM 89.6 °F 98.2 °F 73.4 °F 59% 29.92 in 10.0 mi WSW 8.1 mph - N/A   Clear
11:55 AM 91.4 °F 100.1 °F 73.4 °F 55% 29.93 in 10.0 mi WSW 8.1 mph - N/A   Scattered Clouds
12:15 PM 91.4 °F 100.1 °F 73.4 °F 55% 29.92 in 10.0 mi WSW 6.9 mph - N/A   Scattered Clouds
12:35 PM 91.4 °F 100.1 °F 73.4 °F 55% 29.92 in 10.0 mi SW 9.2 mph - N/A   Clear
12:55 PM 91.4 °F 100.1 °F 73.4 °F 55% 29.90 in 10.0 mi WSW 8.1 mph - N/A   Clear
1:15 PM 93.2 °F 105.0 °F 75.2 °F 56% 29.89 in 10.0 mi SSW 8.1 mph - N/A   Clear
1:35 PM 95.0 °F 104.5 °F 73.4 °F 49% 29.88 in 7.0 mi SW 6.9 mph - N/A   Clear
1:55 PM 95.0 °F 104.5 °F 73.4 °F 49% 29.88 in 7.0 mi WSW 8.1 mph - N/A   Clear
2:15 PM 95.0 °F 104.5 °F 73.4 °F 49% 29.89 in 10.0 mi West 5.8 mph - N/A   Clear
2:35 PM 95.0 °F 104.5 °F 73.4 °F 49% 29.88 in 10.0 mi WSW 3.5 mph - N/A   Clear
3:15 PM 96.8 °F 107.3 °F 73.4 °F 47% 29.86 in 10.0 mi WSW 6.9 mph - N/A   Clear
3:35 PM 96.8 °F 107.3 °F 73.4 °F 47% 29.86 in 10.0 mi WNW 4.6 mph - N/A   Clear
3:55 PM 96.8 °F 109.6 °F 75.2 °F 50% 29.86 in 10.0 mi West 4.6 mph - N/A   Clear
4:15 PM 96.8 °F 107.3 °F 73.4 °F 47% 29.85 in 10.0 mi WNW 3.5 mph - N/A   Clear
4:35 PM 96.8 °F 107.3 °F 73.4 °F 47% 29.85 in 10.0 mi Calm Calm - N/A   Clear
4:55 PM 96.8 °F 107.3 °F 73.4 °F 47% 29.84 in 10.0 mi Calm Calm - N/A   Clear
5:15 PM 96.8 °F 107.3 °F 73.4 °F 47% 29.83 in 10.0 mi West 3.5 mph - N/A   Clear
5:35 PM 96.8 °F 105.1 °F 71.6 °F 44% 29.83 in 10.0 mi WSW 4.6 mph - N/A   Clear
5:55 PM 93.2 °F 102.4 °F 73.4 °F 52% 29.82 in 10.0 mi West 3.5 mph - N/A   Clear
6:15 PM 91.4 °F 100.1 °F 73.4 °F 55% 29.82 in 10.0 mi Calm Calm - N/A Thunderstorm Clear
6:35 PM 89.6 °F 99.8 °F 75.2 °F 62% 29.82 in 10.0 mi Calm Calm - N/A Thunderstorm Clear
6:55 PM 89.6 °F 104.7 °F 78.8 °F 70% 29.81 in 5.0 mi NW 6.9 mph - N/A Rain Rain
7:15 PM 87.8 °F 102.5 °F 78.8 °F 75% 29.82 in 10.0 mi Calm Calm - N/A   Scattered Clouds
7:35 PM 87.8 °F 102.5 °F 78.8 °F 75% 29.82 in 10.0 mi Calm Calm - N/A   Clear
7:55 PM 86.0 °F 101.9 °F 80.6 °F 84% 29.82 in 10.0 mi Calm Calm - N/A   Clear
8:15 PM 86.0 °F 101.9 °F 80.6 °F 84% 29.83 in 10.0 mi Calm Calm - N/A   Clear
8:35 PM 84.2 °F 103.5 °F 84.2 °F 100% 29.83 in 10.0 mi Calm Calm - N/A   Clear
8:55 PM 82.4 °F 96.1 °F 82.4 °F 100% 29.83 in 10.0 mi Calm Calm - N/A Thunderstorm Scattered Clouds
9:15 PM 82.4 °F 96.1 °F 82.4 °F 100% 29.81 in 10.0 mi Calm Calm - N/A   Scattered Clouds
9:35 PM 82.4 °F 96.1 °F 82.4 °F 100% 29.82 in 10.0 mi Calm Calm - N/A   Clear
9:55 PM 82.4 °F 96.1 °F 82.4 °F 100% 29.82 in 10.0 mi Calm Calm - N/A   Clear
10:15 PM 82.4 °F 96.1 °F 82.4 °F 100% 29.82 in 10.0 mi Calm Calm - N/A   Scattered Clouds
10:35 PM 82.4 °F 96.1 °F 82.4 °F 100% 29.82 in 10.0 mi East 4.6 mph - N/A Thunderstorm Clear
10:55 PM 78.8 °F - 71.6 °F 78% 29.84 in 10.0 mi ESE 20.7 mph 26.5 mph N/A Thunderstorm Mostly Cloudy
11:15 PM 78.8 °F - 69.8 °F 74% 29.82 in 10.0 mi SE 21.9 mph 33.4 mph N/A Thunderstorm Overcast
11:35 PM 77.0 °F - 71.6 °F 83% 29.87 in 10.0 mi South 18.4 mph 29.9 mph N/A Thunderstorm Thunderstorm
11:55 PM 73.4 °F - 73.4 °F 100% 29.86 in 4.0 mi SSE 16.1 mph 25.3 mph N/A Rain , Thunderstorm Thunderstorms and Rain